Location: *
(48.8489°N, 2.3218°E)
Time: 09:19:50
(UTC+00:00)

Cosmos 2219 Rocket - Pass Details

Date: 23 August 2019
Orbit: 829 x 845 km, 71.0° (Epoch: 21 October)

Event Time Altitude Azimuth Distance (km) Brightness Sun altitude
Rises 22:10:46 0° 336° (NNW) 3,387 6.7 -25.7°
Reaches altitude 10° 22:13:55 10° 353° (N) 2,448 5.5 -26.0°
Maximum altitude 22:17:56 20° 39° (NE) 1,852 4.2 -26.3°
Enters shadow 22:20:30 15° 72° (ENE) 2,110 4.2 -26.5°
